METEOSAT-12 (MTG-I1)

Last updated on Wed Sep 17 2025 00:02:23 GMT+0000 (Coordinated Universal Time)

1 54743U 22170C 25259.29820663 -.00000025 00000+0 00000+0 0 9990 2 54743 0.7014 33.0897 0001543 135.9339 293.5326 1.00274989 10239
UTC large
Height (km)
Speed (km/s)
/
Latitude / Longitude
Inclination (degrees)
Orbital Period (minutes)
Azimuth
Elevation
Range (km)
Doppler Factor

Next 0 passes for location: London (51.5072 / 0.1276)

Sorry there are no passes over London.